Time,TemperatureF,DewpointF,PressureIn,WindDirection,WindDirectionDegrees,WindSpeedMPH,WindSpeedGustMPH,Humidity,HourlyPrecipIn,Conditions,Clouds,dailyrainin,SoftwareType,DateUTC
2013-01-11 00:01:00,59.5,58.6,30.06,SSW,199,5.2,7.1,97,0.00,CLR,,0.00,WeatherDisplay:10.37,2013-01-11 06:01:00,
2013-01-11 00:06:00,59.5,58.9,30.07,SSW,192,4.6,5.8,98,0.00,CLR,,0.00,WeatherDisplay:10.37,2013-01-11 06:06:00,
2013-01-11 00:11:00,59.5,58.9,30.06,SSW,210,4.7,6.3,98,0.00,CLR,,0.00,WeatherDisplay:10.37,2013-01-11 06:11:00,
2013-01-11 00:16:00,59.4,58.8,30.06,South,175,4.7,8.4,98,0.00,CLR,,0.00,WeatherDisplay:10.37,2013-01-11 06:16:00,
2013-01-11 00:21:00,59.5,58.9,30.06,South,188,4.2,8.4,98,0.00,CLR,,0.00,WeatherDisplay:10.37,2013-01-11 06:21:00,
2013-01-11 00:26:00,59.5,58.9,30.06,SSW,195,5.6,8.1,98,0.00,CLR,,0.00,WeatherDisplay:10.37,2013-01-11 06:26:00,
2013-01-11 00:31:00,59.4,58.8,30.06,SSW,192,5.8,8.5,98,0.00,CLR,,0.00,WeatherDisplay:10.37,2013-01-11 06:31:00,
2013-01-11 00:36:00,59.4,58.8,30.06,SSW,198,5.6,8.5,98,0.00,CLR,,0.00,WeatherDisplay:10.37,2013-01-11 06:36:00,
2013-01-11 00:41:00,59.4,58.8,30.06,SSW,198,5.8,8.8,98,0.00,CLR,,0.00,WeatherDisplay:10.37,2013-01-11 06:41:00,
2013-01-11 00:46:00,59.4,59.1,30.06,SSW,200,4.9,9.2,99,0.00,CLR,,0.00,WeatherDisplay:10.37,2013-01-11 06:46:00,
2013-01-11 00:51:00,59.5,59.2,30.06,South,178,4.8,6.9,99,0.00,CLR,,0.00,WeatherDisplay:10.37,2013-01-11 06:51:00,
2013-01-11 00:56:00,59.5,59.2,30.05,SSW,212,4.6,8.1,99,0.00,CLR,,0.00,WeatherDisplay:10.37,2013-01-11 06:56:00,
2013-01-11 01:01:00,59.5,59.2,30.05,South,184,4.9,6.9,99,0.00,CLR,,0.00,WeatherDisplay:10.37,2013-01-11 07:01:00,
2013-01-11 01:06:00,59.5,59.2,30.05,South,184,5.5,8.3,99,0.00,CLR,,0.00,WeatherDisplay:10.37,2013-01-11 07:06:00,
2013-01-11 01:11:00,59.4,59.1,30.05,SSE,158,5.0,8.1,99,0.00,CLR,,0.00,WeatherDisplay:10.37,2013-01-11 07:11:00,
2013-01-11 01:16:00,59.4,59.1,30.05,SSW,198,5.0,8.1,99,0.00,CLR,,0.00,WeatherDisplay:10.37,2013-01-11 07:16:00,
2013-01-11 01:21:00,59.5,59.2,30.05,South,181,4.0,8.1,99,0.00,CLR,,0.00,WeatherDisplay:10.37,2013-01-11 07:21:00,
2013-01-11 01:26:00,59.5,59.2,30.05,SSE,162,4.7,7.5,99,0.00,CLR,,0.00,WeatherDisplay:10.37,2013-01-11 07:26:00,
2013-01-11 01:31:00,59.5,59.5,30.04,South,174,5.2,9.2,100,0.00,CLR,,0.00,WeatherDisplay:10.37,2013-01-11 07:31:00,
2013-01-11 01:36:00,59.5,59.5,30.04,SE,127,7.1,11.9,100,0.00,CLR,,0.00,WeatherDisplay:10.37,2013-01-11 07:36:00,
2013-01-11 01:41:00,59.6,59.6,30.04,South,181,5.9,9.2,100,0.00,CLR,,0.00,WeatherDisplay:10.37,2013-01-11 07:41:00,
2013-01-11 01:46:00,59.6,59.6,30.04,SSW,193,4.8,9.2,100,0.00,CLR,,0.00,WeatherDisplay:10.37,2013-01-11 07:46:00,
2013-01-11 01:51:00,59.6,59.6,30.04,SSW,198,5.3,8.1,100,0.00,CLR,,0.00,WeatherDisplay:10.37,2013-01-11 07:51:00,
2013-01-11 01:56:00,59.6,59.6,30.04,SSW,195,4.4,6.9,100,0.00,CLR,,0.00,WeatherDisplay:10.37,2013-01-11 07:56:00,
2013-01-11 02:01:00,59.6,59.6,30.04,South,169,5.7,8.3,100,0.00,CLR,,0.00,WeatherDisplay:10.37,2013-01-11 08:01:00,
2013-01-11 02:06:00,59.6,59.6,30.04,SSW,195,3.7,6.9,100,0.00,CLR,,0.00,WeatherDisplay:10.37,2013-01-11 08:06:00,
2013-01-11 02:11:00,59.7,59.7,30.04,SSW,206,3.4,4.6,100,0.00,CLR,,0.00,WeatherDisplay:10.37,2013-01-11 08:11:00,
2013-01-11 02:16:00,59.5,59.5,30.04,SSW,192,3.8,5.8,100,0.00,CLR,,0.00,WeatherDisplay:10.37,2013-01-11 08:16:00,
2013-01-11 02:21:00,59.5,59.5,30.04,South,174,3.6,8.1,100,0.00,CLR,,0.00,WeatherDisplay:10.37,2013-01-11 08:21:00,
2013-01-11 02:26:00,59.4,59.4,30.03,SSW,199,3.3,8.1,100,0.00,CLR,,0.00,WeatherDisplay:10.37,2013-01-11 08:26:00,
2013-01-11 02:31:00,59.5,59.5,30.03,SSW,192,2.5,8.1,100,0.00,CLR,,0.00,WeatherDisplay:10.37,2013-01-11 08:31:00,
2013-01-11 02:36:00,59.4,59.4,30.04,SSW,202,3.7,6.0,100,0.00,CLR,,0.00,WeatherDisplay:10.37,2013-01-11 08:36:00,
2013-01-11 02:41:00,59.4,59.4,30.04,SSW,195,3.0,4.6,100,0.00,CLR,,0.00,WeatherDisplay:10.37,2013-01-11 08:41:00,
2013-01-11 02:46:00,59.4,59.4,30.04,SSW,212,2.4,3.5,100,0.00,CLR,,0.00,WeatherDisplay:10.37,2013-01-11 08:46:00,
2013-01-11 02:51:00,59.3,59.3,30.04,SSW,192,2.0,3.5,100,0.00,CLR,,0.00,WeatherDisplay:10.37,2013-01-11 08:51:00,
2013-01-11 02:56:00,59.3,59.3,30.03,SSW,196,2.3,3.5,100,0.00,CLR,,0.00,WeatherDisplay:10.37,2013-01-11 08:56:00,
2013-01-11 03:02:00,59.2,59.2,30.03,South,181,2.2,3.5,100,0.00,CLR,,0.00,WeatherDisplay:10.37,2013-01-11 09:02:00,
2013-01-11 03:07:00,59.1,59.1,30.03,South,178,3.2,4.7,100,0.00,CLR,,0.00,WeatherDisplay:10.37,2013-01-11 09:07:00,
2013-01-11 03:12:00,59.0,59.0,30.03,South,188,3.1,4.6,100,0.00,CLR,,0.00,WeatherDisplay:10.37,2013-01-11 09:12:00,
2013-01-11 03:17:00,59.1,59.1,30.03,SW,217,3.1,4.6,100,0.00,CLR,,0.00,WeatherDisplay:10.37,2013-01-11 09:17:00,
2013-01-11 03:22:00,59.0,59.0,30.03,South,189,2.4,4.6,100,0.00,CLR,,0.00,WeatherDisplay:10.37,2013-01-11 09:22:00,
2013-01-11 03:27:00,59.0,59.0,30.03,SSW,208,2.8,3.5,100,0.00,CLR,,0.00,WeatherDisplay:10.37,2013-01-11 09:27:00,
2013-01-11 03:32:00,59.0,59.0,30.02,SSW,195,3.0,5.8,100,0.00,CLR,,0.00,WeatherDisplay:10.37,2013-01-11 09:32:00,
2013-01-11 03:37:00,59.1,59.1,30.02,SSW,212,3.6,4.6,100,0.00,CLR,,0.00,WeatherDisplay:10.37,2013-01-11 09:37:00,
2013-01-11 03:42:00,59.2,59.2,30.02,South,182,3.3,5.8,100,0.00,CLR,,0.00,WeatherDisplay:10.37,2013-01-11 09:42:00,
2013-01-11 03:47:00,59.2,59.2,30.01,SSW,205,2.4,5.8,100,0.00,CLR,,0.00,WeatherDisplay:10.37,2013-01-11 09:47:00,
2013-01-11 03:52:00,59.0,59.0,30.01,SSW,210,2.8,4.6,100,0.00,CLR,,0.00,WeatherDisplay:10.37,2013-01-11 09:52:00,
2013-01-11 03:57:00,58.9,58.9,30.01,SW,223,4.1,5.8,100,0.00,CLR,,0.00,WeatherDisplay:10.37,2013-01-11 09:57:00,
2013-01-11 04:02:00,58.8,58.8,30.01,SSW,208,2.9,4.6,100,0.00,CLR,,0.00,WeatherDisplay:10.37,2013-01-11 10:02:00,
2013-01-11 04:07:00,58.6,58.6,30.01,SW,216,1.4,3.6,100,0.00,CLR,,0.00,WeatherDisplay:10.37,2013-01-11 10:07:00,
2013-01-11 04:12:00,58.1,58.1,30.01,SW,222,2.1,3.5,100,0.00,CLR,,0.00,WeatherDisplay:10.37,2013-01-11 10:12:00,
2013-01-11 04:17:00,57.8,57.8,30.00,WSW,250,2.1,3.5,100,0.00,CLR,,0.00,WeatherDisplay:10.37,2013-01-11 10:17:00,
2013-01-11 04:22:00,57.5,57.5,30.00,SW,232,2.0,3.5,100,0.00,CLR,,0.00,WeatherDisplay:10.37,2013-01-11 10:22:00,
2013-01-11 04:27:00,57.3,57.3,30.00,SW,230,2.4,3.5,100,0.00,CLR,,0.00,WeatherDisplay:10.37,2013-01-11 10:27:00,
2013-01-11 04:32:00,57.3,57.3,30.00,SW,223,2.8,4.6,100,0.00,CLR,,0.00,WeatherDisplay:10.37,2013-01-11 10:32:00,
2013-01-11 04:37:00,57.6,57.6,30.00,SSW,198,3.6,4.6,100,0.00,CLR,,0.00,WeatherDisplay:10.37,2013-01-11 10:37:00,
2013-01-11 04:42:00,57.8,57.8,30.00,SW,229,2.9,4.6,100,0.00,CLR,,0.00,WeatherDisplay:10.37,2013-01-11 10:42:00,
2013-01-11 04:47:00,57.8,57.8,30.00,SW,226,3.3,4.6,100,0.00,CLR,,0.00,WeatherDisplay:10.37,2013-01-11 10:47:00,
2013-01-11 04:52:00,57.8,57.8,30.00,SW,223,3.2,4.2,100,0.00,CLR,,0.00,WeatherDisplay:10.37,2013-01-11 10:52:00,
2013-01-11 04:57:00,57.7,57.7,30.00,SW,220,2.1,3.5,100,0.00,CLR,,0.00,WeatherDisplay:10.37,2013-01-11 10:57:00,
2013-01-11 05:02:00,57.9,57.9,29.99,SW,220,3.0,3.5,100,0.00,CLR,,0.00,WeatherDisplay:10.37,2013-01-11 11:02:00,
2013-01-11 05:07:00,58.1,58.1,29.99,SSW,196,1.6,2.3,100,0.00,CLR,,0.00,WeatherDisplay:10.37,2013-01-11 11:07:00,
2013-01-11 05:12:00,58.1,58.1,29.99,South,186,2.1,2.7,100,0.00,CLR,,0.00,WeatherDisplay:10.37,2013-01-11 11:12:00,
2013-01-11 05:17:00,58.0,58.0,30.00,SSE,155,1.9,2.8,100,0.00,CLR,,0.00,WeatherDisplay:10.37,2013-01-11 11:17:00,
2013-01-11 05:22:00,57.7,57.7,30.00,South,178,2.3,3.5,100,0.00,CLR,,0.00,WeatherDisplay:10.37,2013-01-11 11:22:00,
2013-01-11 05:27:00,57.6,57.6,29.99,SSE,148,1.1,2.3,100,0.00,CLR,,0.00,WeatherDisplay:10.37,2013-01-11 11:27:00,
2013-01-11 05:32:00,57.5,57.5,29.99,SE,143,0.9,2.3,100,0.00,CLR,,0.00,WeatherDisplay:10.37,2013-01-11 11:32:00,
2013-01-11 05:37:00,57.3,57.3,29.99,SE,131,1.1,2.3,100,0.00,CLR,,0.00,WeatherDisplay:10.37,2013-01-11 11:37:00,
2013-01-11 05:42:00,57.3,57.3,29.99,SE,126,1.6,2.5,100,0.00,CLR,,0.00,WeatherDisplay:10.37,2013-01-11 11:42:00,
2013-01-11 05:47:00,57.3,57.3,29.99,SE,128,1.2,2.5,100,0.00,CLR,,0.00,WeatherDisplay:10.37,2013-01-11 11:47:00,
2013-01-11 05:52:00,57.3,57.3,29.99,SE,145,2.0,2.5,100,0.00,CLR,,0.00,WeatherDisplay:10.37,2013-01-11 11:52:00,
2013-01-11 05:57:00,57.4,57.4,29.99,SE,133,2.7,3.5,100,0.00,CLR,,0.00,WeatherDisplay:10.37,2013-01-11 11:57:00,
2013-01-11 06:02:00,57.4,57.4,29.99,SE,128,2.1,3.5,100,0.00,CLR,,0.00,WeatherDisplay:10.37,2013-01-11 12:02:00,
2013-01-11 06:07:00,57.5,57.5,29.99,SE,127,2.4,3.5,100,0.00,CLR,,0.00,WeatherDisplay:10.37,2013-01-11 12:07:00,
2013-01-11 06:12:00,57.8,57.8,29.99,SSE,148,1.6,3.5,100,0.00,CLR,,0.00,WeatherDisplay:10.37,2013-01-11 12:12:00,
2013-01-11 06:17:00,58.0,58.0,29.99,SSE,150,1.9,3.5,100,0.00,CLR,,0.00,WeatherDisplay:10.37,2013-01-11 12:17:00,
2013-01-11 06:22:00,58.2,58.2,29.99,ESE,119,2.2,3.5,100,0.00,CLR,,0.00,WeatherDisplay:10.37,2013-01-11 12:22:00,
2013-01-11 06:27:00,58.2,58.2,29.99,SE,128,0.9,2.3,100,0.00,CLR,,0.00,WeatherDisplay:10.37,2013-01-11 12:27:00,
2013-01-11 06:32:00,58.1,58.1,29.99,ESE,116,0.0,2.3,100,0.00,CLR,,0.00,WeatherDisplay:10.37,2013-01-11 12:32:00,
2013-01-11 06:37:00,58.1,58.1,29.99,ESE,116,0.0,0.0,100,0.00,CLR,,0.00,WeatherDisplay:10.37,2013-01-11 12:37:00,
2013-01-11 06:42:00,57.9,57.9,29.99,ESE,116,0.0,0.0,100,0.00,CLR,,0.00,WeatherDisplay:10.37,2013-01-11 12:42:00,
2013-01-11 06:47:00,57.7,57.7,29.99,ESE,116,0.0,0.0,100,0.00,CLR,,0.00,WeatherDisplay:10.37,2013-01-11 12:47:00,
2013-01-11 06:52:00,57.7,57.7,29.99,ESE,116,0.0,0.0,100,0.00,CLR,,0.00,WeatherDisplay:10.37,2013-01-11 12:52:00,
2013-01-11 06:57:00,57.5,57.5,29.99,ESE,116,0.0,0.0,100,0.00,CLR,,0.00,WeatherDisplay:10.37,2013-01-11 12:57:00,
2013-01-11 07:02:00,57.5,57.5,29.99,ESE,116,0.0,0.0,100,0.00,CLR,,0.00,WeatherDisplay:10.37,2013-01-11 13:02:00,
2013-01-11 07:07:00,57.4,57.4,29.99,ESE,116,0.0,0.0,100,0.00,CLR,,0.00,WeatherDisplay:10.37,2013-01-11 13:07:00,
2013-01-11 07:12:00,57.5,57.5,29.99,ESE,116,0.0,0.0,100,0.00,CLR,,0.00,WeatherDisplay:10.37,2013-01-11 13:12:00,
2013-01-11 07:17:00,57.5,57.5,29.99,East,95,2.7,2.9,100,0.00,CLR,,0.00,WeatherDisplay:10.37,2013-01-11 13:17:00,
2013-01-11 07:22:00,57.5,57.5,29.99,East,88,2.7,3.5,100,0.00,CLR,,0.00,WeatherDisplay:10.37,2013-01-11 13:22:00,
2013-01-11 07:27:00,57.3,57.3,29.99,East,89,2.6,3.5,100,0.00,CLR,,0.00,WeatherDisplay:10.37,2013-01-11 13:27:00,
2013-01-11 07:32:00,57.2,57.2,29.99,East,85,3.2,3.7,100,0.00,CLR,,0.00,WeatherDisplay:10.37,2013-01-11 13:32:00,
2013-01-11 07:37:00,57.2,57.2,29.99,ENE,72,1.9,2.3,100,0.00,CLR,,0.00,WeatherDisplay:10.37,2013-01-11 13:37:00,
2013-01-11 07:42:00,57.5,57.5,29.99,NNE,28,1.5,1.8,100,0.00,CLR,,0.00,WeatherDisplay:10.37,2013-01-11 13:42:00,
2013-01-11 07:47:00,57.7,57.7,29.99,NNW,330,0.0,0.0,100,0.00,CLR,,0.00,WeatherDisplay:10.37,2013-01-11 13:47:00,
2013-01-11 07:52:00,57.6,57.6,29.99,NNW,330,0.0,0.0,100,0.00,CLR,,0.00,WeatherDisplay:10.37,2013-01-11 13:52:00,
2013-01-11 07:57:00,57.8,57.8,30.00,NNW,330,0.0,0.0,100,0.00,CLR,,0.00,WeatherDisplay:10.37,2013-01-11 13:57:00,
2013-01-11 08:03:00,57.7,57.7,30.00,NNW,330,0.0,0.0,100,0.00,CLR,,0.00,WeatherDisplay:10.37,2013-01-11 14:03:00,
2013-01-11 08:08:00,57.4,57.4,30.00,NNW,330,0.0,0.0,100,0.00,CLR,,0.00,WeatherDisplay:10.37,2013-01-11 14:08:00,
2013-01-11 08:13:00,57.4,57.4,30.00,NNW,330,0.0,0.0,100,0.00,CLR,,0.00,WeatherDisplay:10.37,2013-01-11 14:13:00,
2013-01-11 08:18:00,57.6,57.6,30.00,NNW,330,0.0,0.0,100,0.00,CLR,,0.00,WeatherDisplay:10.37,2013-01-11 14:18:00,
2013-01-11 08:23:00,57.7,57.7,30.00,NNW,330,0.0,0.0,100,0.00,CLR,,0.00,WeatherDisplay:10.37,2013-01-11 14:23:00,
2013-01-11 08:28:00,57.9,57.9,30.00,NNW,330,0.0,0.0,100,0.00,CLR,,0.00,WeatherDisplay:10.37,2013-01-11 14:28:00,
2013-01-11 08:33:00,58.1,58.1,30.00,NNW,330,0.0,0.0,100,0.00,CLR,,0.00,WeatherDisplay:10.37,2013-01-11 14:33:00,
2013-01-11 08:38:00,58.3,58.3,30.00,NNW,330,0.0,0.0,100,0.00,CLR,,0.00,WeatherDisplay:10.37,2013-01-11 14:38:00,
2013-01-11 08:43:00,58.7,58.7,30.00,NNW,330,0.0,0.0,100,0.00,CLR,,0.00,WeatherDisplay:10.37,2013-01-11 14:43:00,
2013-01-11 08:48:00,59.0,59.0,30.00,NNW,330,0.0,0.0,100,0.00,CLR,,0.00,WeatherDisplay:10.37,2013-01-11 14:48:00,
2013-01-11 08:53:00,59.3,59.3,30.00,NNW,330,0.0,0.0,100,0.00,CLR,,0.00,WeatherDisplay:10.37,2013-01-11 14:53:00,
2013-01-11 08:58:00,59.5,59.5,30.00,NNW,330,0.0,0.0,100,0.00,CLR,,0.00,WeatherDisplay:10.37,2013-01-11 14:58:00,
2013-01-11 09:03:00,59.8,59.8,30.00,NNW,330,0.0,0.0,100,0.00,CLR,,0.00,WeatherDisplay:10.37,2013-01-11 15:03:00,
2013-01-11 09:08:00,60.5,60.5,30.00,East,82,3.5,4.7,100,0.00,CLR,,0.00,WeatherDisplay:10.37,2013-01-11 15:08:00,
2013-01-11 09:13:00,61.0,61.0,30.00,East,97,2.9,5.8,100,0.00,CLR,,0.00,WeatherDisplay:10.37,2013-01-11 15:13:00,
2013-01-11 09:18:00,61.2,61.2,30.00,East,79,3.0,4.6,100,0.00,CLR,,0.00,WeatherDisplay:10.37,2013-01-11 15:18:00,
2013-01-11 09:23:00,61.3,61.3,30.00,East,96,2.9,4.6,100,0.00,CLR,,0.00,WeatherDisplay:10.37,2013-01-11 15:23:00,
2013-01-11 09:28:00,61.5,61.5,30.00,East,85,4.5,6.0,100,0.00,CLR,,0.00,WeatherDisplay:10.37,2013-01-11 15:28:00,
2013-01-11 09:33:00,62.1,62.1,30.00,East,93,3.7,4.8,100,0.00,CLR,,0.00,WeatherDisplay:10.37,2013-01-11 15:33:00,
2013-01-11 09:38:00,62.7,62.7,30.00,NE,52,3.9,4.6,100,0.00,CLR,,0.00,WeatherDisplay:10.37,2013-01-11 15:38:00,
2013-01-11 09:43:00,63.3,63.3,30.00,NNE,27,3.9,5.8,100,0.00,CLR,,0.00,WeatherDisplay:10.37,2013-01-11 15:43:00,
2013-01-11 09:48:00,63.6,63.6,30.00,NE,42,3.8,5.0,100,0.00,CLR,,0.00,WeatherDisplay:10.37,2013-01-11 15:48:00,
2013-01-11 09:53:00,63.7,63.7,30.00,NE,56,3.6,4.6,100,0.00,CLR,,0.00,WeatherDisplay:10.37,2013-01-11 15:53:00,
2013-01-11 09:58:00,63.7,63.7,30.00,ENE,75,3.7,4.6,100,0.00,CLR,,0.00,WeatherDisplay:10.37,2013-01-11 15:58:00,
2013-01-11 10:03:00,63.8,63.8,30.00,East,82,3.4,5.0,100,0.00,CLR,,0.00,WeatherDisplay:10.37,2013-01-11 16:03:00,
2013-01-11 10:08:00,64.0,64.0,29.99,East,80,4.0,5.8,100,0.00,CLR,,0.00,WeatherDisplay:10.37,2013-01-11 16:08:00,
2013-01-11 10:13:00,64.3,64.3,29.99,East,83,4.0,5.8,100,0.00,CLR,,0.00,WeatherDisplay:10.37,2013-01-11 16:13:00,
2013-01-11 10:18:00,64.8,64.8,29.99,East,86,3.2,4.7,100,0.00,CLR,,0.00,WeatherDisplay:10.37,2013-01-11 16:18:00,
2013-01-11 10:23:00,65.3,65.3,29.99,ENE,65,3.3,4.6,100,0.00,CLR,,0.00,WeatherDisplay:10.37,2013-01-11 16:23:00,
2013-01-11 10:28:00,65.7,65.7,29.99,ENE,76,3.6,5.8,100,0.00,CLR,,0.00,WeatherDisplay:10.37,2013-01-11 16:28:00,
2013-01-11 10:33:00,66.3,66.3,29.99,ESE,106,3.4,4.6,100,0.00,CLR,,0.00,WeatherDisplay:10.37,2013-01-11 16:33:00,
2013-01-11 10:38:00,67.1,67.1,29.99,SE,136,4.2,6.0,100,0.00,CLR,,0.00,WeatherDisplay:10.37,2013-01-11 16:38:00,
2013-01-11 10:43:00,68.0,68.0,29.99,SE,130,5.8,8.1,100,0.00,CLR,,0.00,WeatherDisplay:10.37,2013-01-11 16:43:00,
2013-01-11 10:48:00,68.5,68.5,29.99,ESE,123,5.3,8.5,100,0.00,CLR,,0.00,WeatherDisplay:10.37,2013-01-11 16:48:00,
2013-01-11 10:53:00,68.7,68.7,29.99,SE,127,2.9,6.9,100,0.00,CLR,,0.00,WeatherDisplay:10.37,2013-01-11 16:53:00,
2013-01-11 10:58:00,68.6,68.6,29.99,SSE,160,6.0,8.2,100,0.00,CLR,,0.00,WeatherDisplay:10.37,2013-01-11 16:58:00,
2013-01-11 11:03:00,68.5,68.5,29.99,SSE,150,5.9,8.5,100,0.00,CLR,,0.00,WeatherDisplay:10.37,2013-01-11 17:03:00,
2013-01-11 11:08:00,68.2,67.9,29.98,ESE,121,5.8,9.5,99,0.00,CLR,,0.00,WeatherDisplay:10.37,2013-01-11 17:08:00,
2013-01-11 11:13:00,68.1,67.8,29.97,SE,136,6.6,9.2,99,0.00,CLR,,0.00,WeatherDisplay:10.37,2013-01-11 17:13:00,
2013-01-11 11:18:00,67.9,67.6,29.98,ESE,107,6.7,9.9,99,0.00,CLR,,0.00,WeatherDisplay:10.37,2013-01-11 17:18:00,
2013-01-11 11:23:00,67.9,67.6,29.98,South,182,6.8,10.4,99,0.00,CLR,,0.00,WeatherDisplay:10.37,2013-01-11 17:23:00,
2013-01-11 11:28:00,68.1,67.8,29.97,SSE,167,7.1,10.4,99,0.00,CLR,,0.00,WeatherDisplay:10.37,2013-01-11 17:28:00,
2013-01-11 11:33:00,68.5,68.2,29.96,ESE,107,6.2,8.1,99,0.00,CLR,,0.00,WeatherDisplay:10.37,2013-01-11 17:33:00,
2013-01-11 11:38:00,68.5,68.2,29.96,ESE,116,6.4,10.4,99,0.00,CLR,,0.00,WeatherDisplay:10.37,2013-01-11 17:38:00,
2013-01-11 11:43:00,68.7,68.4,29.95,SE,130,6.8,10.4,99,0.00,CLR,,0.00,WeatherDisplay:10.37,2013-01-11 17:43:00,
2013-01-11 11:48:00,69.2,68.6,29.96,South,182,4.9,10.4,98,0.00,CLR,,0.00,WeatherDisplay:10.37,2013-01-11 17:48:00,
2013-01-11 11:53:00,69.5,68.9,29.96,SSE,160,6.3,10.4,98,0.00,CLR,,0.00,WeatherDisplay:10.37,2013-01-11 17:53:00,
2013-01-11 11:59:00,70.0,69.1,29.96,SSE,168,5.0,10.4,97,0.00,CLR,,0.00,WeatherDisplay:10.37,2013-01-11 17:59:00,
2013-01-11 12:04:00,70.4,69.5,29.95,SE,145,6.0,9.0,97,0.00,CLR,,0.00,WeatherDisplay:10.37,2013-01-11 18:04:00,
2013-01-11 12:09:00,70.8,69.6,29.95,SE,130,7.9,10.9,96,0.00,CLR,,0.00,WeatherDisplay:10.37,2013-01-11 18:09:00,
2013-01-11 12:14:00,71.2,69.7,29.94,ESE,119,6.7,11.5,95,0.00,CLR,,0.00,WeatherDisplay:10.37,2013-01-11 18:14:00,
2013-01-11 12:19:00,71.2,69.7,29.94,SE,133,6.0,11.1,95,0.00,CLR,,0.00,WeatherDisplay:10.37,2013-01-11 18:19:00,
2013-01-11 12:24:00,71.2,69.7,29.94,SSE,167,6.9,10.6,95,0.00,CLR,,0.00,WeatherDisplay:10.37,2013-01-11 18:24:00,
2013-01-11 12:29:00,71.1,69.6,29.93,SSE,164,6.7,11.5,95,0.00,CLR,,0.00,WeatherDisplay:10.37,2013-01-11 18:29:00,
2013-01-11 12:34:00,71.4,69.6,29.93,SSE,162,6.2,10.6,94,0.00,CLR,,0.00,WeatherDisplay:10.37,2013-01-11 18:34:00,
2013-01-11 12:39:00,71.3,69.5,29.93,SE,138,7.6,10.4,94,0.00,CLR,,0.00,WeatherDisplay:10.37,2013-01-11 18:39:00,
2013-01-11 12:44:00,71.1,69.3,29.92,SE,133,8.1,12.7,94,0.00,CLR,,0.00,WeatherDisplay:10.37,2013-01-11 18:44:00,
2013-01-11 12:49:00,70.5,69.0,29.92,SSE,164,7.8,11.5,95,0.00,CLR,,0.00,WeatherDisplay:10.37,2013-01-11 18:49:00,
2013-01-11 12:54:00,70.2,68.7,29.92,South,179,7.5,11.5,95,0.00,CLR,,0.00,WeatherDisplay:10.37,2013-01-11 18:54:00,
2013-01-11 12:59:00,70.1,68.9,29.91,SE,131,7.3,11.5,96,0.00,CLR,,0.00,WeatherDisplay:10.37,2013-01-11 18:59:00,
2013-01-11 13:04:00,70.1,68.9,29.91,SSE,148,6.8,11.8,96,0.00,CLR,,0.00,WeatherDisplay:10.37,2013-01-11 19:04:00,
2013-01-11 13:09:00,70.3,69.1,29.91,South,169,6.9,10.4,96,0.00,CLR,,0.00,WeatherDisplay:10.37,2013-01-11 19:09:00,
2013-01-11 13:14:00,70.6,69.4,29.90,SSE,167,7.3,9.9,96,0.00,CLR,,0.00,WeatherDisplay:10.37,2013-01-11 19:14:00,
2013-01-11 13:19:00,70.9,69.7,29.90,SE,131,7.7,11.8,96,0.00,CLR,,0.00,WeatherDisplay:10.37,2013-01-11 19:19:00,
2013-01-11 13:24:00,70.8,69.6,29.90,SSE,155,6.0,9.2,96,0.00,CLR,,0.00,WeatherDisplay:10.37,2013-01-11 19:24:00,
2013-01-11 13:29:00,71.0,69.8,29.90,SE,144,6.4,11.7,96,0.00,CLR,,0.00,WeatherDisplay:10.37,2013-01-11 19:29:00,
2013-01-11 13:34:00,71.1,69.9,29.90,SSE,148,6.8,11.5,96,0.00,CLR,,0.00,WeatherDisplay:10.37,2013-01-11 19:34:00,
2013-01-11 13:39:00,71.4,70.2,29.89,ESE,106,8.7,12.7,96,0.00,CLR,,0.00,WeatherDisplay:10.37,2013-01-11 19:39:00,
2013-01-11 13:44:00,71.5,70.3,29.89,SE,141,6.5,11.5,96,0.00,CLR,,0.00,WeatherDisplay:10.37,2013-01-11 19:44:00,
2013-01-11 13:49:00,71.6,70.4,29.89,SE,127,5.7,12.7,96,0.00,CLR,,0.00,WeatherDisplay:10.37,2013-01-11 19:49:00,
2013-01-11 13:54:00,71.7,70.2,29.89,ESE,121,5.9,9.2,95,0.00,CLR,,0.00,WeatherDisplay:10.37,2013-01-11 19:54:00,
2013-01-11 13:59:00,71.9,70.4,29.88,ESE,117,6.6,11.0,95,0.00,CLR,,0.00,WeatherDisplay:10.37,2013-01-11 19:59:00,
2013-01-11 14:04:00,72.2,70.7,29.88,SE,128,7.6,11.5,95,0.00,CLR,,0.00,WeatherDisplay:10.37,2013-01-11 20:04:00,
2013-01-11 14:09:00,72.4,70.6,29.88,ESE,112,6.8,9.2,94,0.00,CLR,,0.00,WeatherDisplay:10.37,2013-01-11 20:09:00,
2013-01-11 14:14:00,72.4,70.6,29.88,ESE,110,9.5,15.0,94,0.00,CLR,,0.00,WeatherDisplay:10.37,2013-01-11 20:14:00,
2013-01-11 14:19:00,72.3,70.5,29.87,East,92,6.6,13.6,94,0.00,CLR,,0.00,WeatherDisplay:10.37,2013-01-11 20:19:00,
2013-01-11 14:24:00,72.3,70.8,29.87,SSE,152,7.7,15.0,95,0.00,CLR,,0.00,WeatherDisplay:10.37,2013-01-11 20:24:00,
2013-01-11 14:29:00,72.3,70.8,29.87,SE,131,6.9,13.8,95,0.00,CLR,,0.00,WeatherDisplay:10.37,2013-01-11 20:29:00,
2013-01-11 14:34:00,72.3,70.5,29.87,ESE,121,7.1,12.7,94,0.00,CLR,,0.00,WeatherDisplay:10.37,2013-01-11 20:34:00,
2013-01-11 14:39:00,72.0,70.5,29.87,SE,140,8.4,11.5,95,0.00,CLR,,0.00,WeatherDisplay:10.37,2013-01-11 20:39:00,
2013-01-11 14:44:00,71.9,70.4,29.87,ESE,109,5.5,8.6,95,0.00,CLR,,0.00,WeatherDisplay:10.37,2013-01-11 20:44:00,
2013-01-11 14:49:00,71.5,70.0,29.87,SE,133,7.1,11.5,95,0.00,CLR,,0.00,WeatherDisplay:10.37,2013-01-11 20:49:00,
2013-01-11 14:54:00,71.2,70.0,29.87,South,171,6.9,11.5,96,0.00,CLR,,0.00,WeatherDisplay:10.37,2013-01-11 20:54:00,
2013-01-11 14:59:00,71.1,69.9,29.87,East,97,6.3,8.1,96,0.00,CLR,,0.00,WeatherDisplay:10.37,2013-01-11 20:59:00,
2013-01-11 15:04:00,71.1,69.9,29.87,SE,127,6.9,11.5,96,0.00,CLR,,0.00,WeatherDisplay:10.37,2013-01-11 21:04:00,
2013-01-11 15:09:00,71.0,70.1,29.87,ESE,119,7.0,10.4,97,0.00,CLR,,0.00,WeatherDisplay:10.37,2013-01-11 21:09:00,
2013-01-11 15:14:00,70.7,69.8,29.87,ESE,123,5.5,9.2,97,0.00,CLR,,0.00,WeatherDisplay:10.37,2013-01-11 21:14:00,
2013-01-11 15:20:00,70.6,69.7,29.87,ESE,119,6.1,6.9,97,0.00,CLR,,0.00,WeatherDisplay:10.37,2013-01-11 21:20:00,
2013-01-11 15:25:00,70.5,69.6,29.87,East,82,3.5,8.1,97,0.00,CLR,,0.00,WeatherDisplay:10.37,2013-01-11 21:25:00,
2013-01-11 15:30:00,70.5,69.9,29.87,ESE,120,4.6,8.1,98,0.00,CLR,,0.00,WeatherDisplay:10.37,2013-01-11 21:30:00,
2013-01-11 15:35:00,70.5,69.9,29.87,ENE,78,5.7,8.1,98,0.00,CLR,,0.00,WeatherDisplay:10.37,2013-01-11 21:35:00,
2013-01-11 15:40:00,70.4,69.8,29.87,ESE,110,5.4,9.2,98,0.00,CLR,,0.00,WeatherDisplay:10.37,2013-01-11 21:40:00,
2013-01-11 15:45:00,70.4,69.8,29.87,ESE,112,6.5,9.6,98,0.00,CLR,,0.00,WeatherDisplay:10.37,2013-01-11 21:45:00,
2013-01-11 15:50:00,70.3,69.7,29.87,SE,130,4.6,9.6,98,0.00,CLR,,0.00,WeatherDisplay:10.37,2013-01-11 21:50:00,
2013-01-11 15:55:00,70.4,69.8,29.87,ESE,123,5.5,8.1,98,0.00,CLR,,0.00,WeatherDisplay:10.37,2013-01-11 21:55:00,
2013-01-11 16:00:00,70.3,69.7,29.87,ESE,119,5.8,9.4,98,0.00,CLR,,0.00,WeatherDisplay:10.37,2013-01-11 22:00:00,
2013-01-11 16:05:00,70.4,69.8,29.86,ESE,110,5.1,9.2,98,0.00,CLR,,0.00,WeatherDisplay:10.37,2013-01-11 22:05:00,
2013-01-11 16:10:00,70.3,69.7,29.86,ESE,113,6.0,9.9,98,0.00,CLR,,0.00,WeatherDisplay:10.37,2013-01-11 22:10:00,
2013-01-11 16:15:00,70.4,69.8,29.86,SSE,151,5.6,8.1,98,0.00,CLR,,0.00,WeatherDisplay:10.37,2013-01-11 22:15:00,
2013-01-11 16:20:00,70.4,69.8,29.86,ENE,72,4.1,9.6,98,0.00,CLR,,0.00,WeatherDisplay:10.37,2013-01-11 22:20:00,
2013-01-11 16:25:00,70.3,69.7,29.85,East,97,5.9,9.3,98,0.00,CLR,,0.00,WeatherDisplay:10.37,2013-01-11 22:25:00,
2013-01-11 16:30:00,70.2,69.6,29.86,ESE,116,7.2,11.8,98,0.00,CLR,,0.00,WeatherDisplay:10.37,2013-01-11 22:30:00,
2013-01-11 16:35:00,70.1,69.5,29.85,SSE,147,6.4,9.2,98,0.00,CLR,,0.00,WeatherDisplay:10.37,2013-01-11 22:35:00,
2013-01-11 16:40:00,70.1,69.8,29.85,SE,131,7.7,11.6,99,0.00,CLR,,0.00,WeatherDisplay:10.37,2013-01-11 22:40:00,
2013-01-11 16:45:00,69.9,69.6,29.85,ESE,123,5.7,13.2,99,0.00,CLR,,0.00,WeatherDisplay:10.37,2013-01-11 22:45:00,
2013-01-11 16:50:00,69.8,69.5,29.85,ESE,102,6.2,9.2,99,0.00,CLR,,0.00,WeatherDisplay:10.37,2013-01-11 22:50:00,
2013-01-11 16:55:00,69.7,69.4,29.85,ESE,120,6.4,9.7,99,0.00,CLR,,0.00,WeatherDisplay:10.37,2013-01-11 22:55:00,
2013-01-11 17:00:00,69.4,69.1,29.85,East,100,6.6,10.4,99,0.00,CLR,,0.00,WeatherDisplay:10.37,2013-01-11 23:00:00,
2013-01-11 17:05:00,69.4,69.1,29.85,ESE,104,5.3,10.4,99,0.00,CLR,,0.00,WeatherDisplay:10.37,2013-01-11 23:05:00,
2013-01-11 17:10:00,69.2,69.2,29.85,ESE,102,5.2,10.4,100,0.00,CLR,,0.00,WeatherDisplay:10.37,2013-01-11 23:10:00,
2013-01-11 17:15:00,69.0,69.0,29.85,ESE,120,4.9,7.3,100,0.00,CLR,,0.00,WeatherDisplay:10.37,2013-01-11 23:15:00,
2013-01-11 17:20:00,69.0,69.0,29.85,SE,143,6.3,10.6,100,0.00,CLR,,0.00,WeatherDisplay:10.37,2013-01-11 23:20:00,
2013-01-11 17:25:00,68.8,68.8,29.85,ESE,103,7.5,10.4,100,0.00,CLR,,0.00,WeatherDisplay:10.37,2013-01-11 23:25:00,
2013-01-11 17:30:00,68.7,68.7,29.85,East,90,5.7,8.8,100,0.00,CLR,,0.00,WeatherDisplay:10.37,2013-01-11 23:30:00,
2013-01-11 17:35:00,68.6,68.6,29.85,East,95,7.1,9.4,100,0.00,CLR,,0.00,WeatherDisplay:10.37,2013-01-11 23:35:00,
2013-01-11 17:40:00,68.6,68.6,29.85,ESE,110,6.1,9.3,100,0.00,CLR,,0.00,WeatherDisplay:10.37,2013-01-11 23:40:00,
2013-01-11 17:45:00,68.5,68.5,29.85,ESE,106,6.8,11.5,100,0.00,CLR,,0.00,WeatherDisplay:10.37,2013-01-11 23:45:00,
2013-01-11 17:50:00,68.4,68.4,29.85,SSE,152,6.1,11.5,100,0.00,CLR,,0.00,WeatherDisplay:10.37,2013-01-11 23:50:00,
2013-01-11 17:55:00,68.4,68.4,29.85,ESE,120,5.4,9.2,100,0.00,CLR,,0.00,WeatherDisplay:10.37,2013-01-11 23:55:00,
2013-01-11 18:00:00,68.4,68.4,29.84,ESE,109,5.4,8.7,100,0.00,CLR,,0.00,WeatherDisplay:10.37,2013-01-12 00:00:00,
2013-01-11 18:05:00,68.2,68.2,29.84,ENE,65,7.0,10.2,100,0.00,CLR,,0.00,WeatherDisplay:10.37,2013-01-12 00:05:00,
2013-01-11 18:10:00,68.2,68.2,29.84,ESE,117,5.4,8.1,100,0.00,CLR,,0.00,WeatherDisplay:10.37,2013-01-12 00:10:00,
2013-01-11 18:15:00,68.1,68.1,29.84,ESE,104,6.9,12.8,100,0.00,CLR,,0.00,WeatherDisplay:10.37,2013-01-12 00:15:00,
2013-01-11 18:20:00,68.1,68.1,29.84,ESE,123,7.7,11.5,100,0.00,CLR,,0.00,WeatherDisplay:10.37,2013-01-12 00:20:00,
2013-01-11 18:25:00,68.0,68.0,29.84,SE,127,8.7,13.7,100,0.00,CLR,,0.00,WeatherDisplay:10.37,2013-01-12 00:25:00,
2013-01-11 18:30:00,68.0,68.0,29.84,SE,144,7.6,11.5,100,0.00,CLR,,0.00,WeatherDisplay:10.37,2013-01-12 00:30:00,
2013-01-11 18:35:00,67.9,67.9,29.84,ESE,103,6.3,11.5,100,0.00,CLR,,0.00,WeatherDisplay:10.37,2013-01-12 00:35:00,
2013-01-11 18:41:00,67.8,67.8,29.83,SE,138,7.4,11.5,100,0.00,CLR,,0.00,WeatherDisplay:10.37,2013-01-12 00:41:00,
2013-01-11 18:46:00,67.8,67.8,29.84,ESE,119,6.3,10.4,100,0.00,CLR,,0.00,WeatherDisplay:10.37,2013-01-12 00:46:00,
2013-01-11 18:51:00,67.7,67.7,29.84,SSE,161,6.1,9.2,100,0.00,CLR,,0.00,WeatherDisplay:10.37,2013-01-12 00:51:00,
2013-01-11 18:56:00,67.6,67.6,29.84,ESE,121,5.2,6.9,100,0.00,CLR,,0.00,WeatherDisplay:10.37,2013-01-12 00:56:00,
2013-01-11 19:01:00,67.6,67.6,29.84,SE,131,4.7,8.1,100,0.00,CLR,,0.00,WeatherDisplay:10.37,2013-01-12 01:01:00,
2013-01-11 19:06:00,67.7,67.7,29.85,SSE,152,6.2,9.2,100,0.00,CLR,,0.00,WeatherDisplay:10.37,2013-01-12 01:06:00,
2013-01-11 19:11:00,67.7,67.7,29.85,SE,134,5.4,8.5,100,0.00,CLR,,0.00,WeatherDisplay:10.37,2013-01-12 01:11:00,
2013-01-11 19:16:00,67.8,67.8,29.84,SSE,164,6.1,9.2,100,0.00,CLR,,0.00,WeatherDisplay:10.37,2013-01-12 01:16:00,
2013-01-11 19:21:00,67.9,67.9,29.84,SSE,160,6.3,10.4,100,0.00,CLR,,0.00,WeatherDisplay:10.37,2013-01-12 01:21:00,
2013-01-11 19:26:00,67.9,67.9,29.84,SE,130,6.8,10.4,100,0.00,CLR,,0.00,WeatherDisplay:10.37,2013-01-12 01:26:00,
2013-01-11 19:31:00,68.1,68.1,29.84,ESE,119,5.3,11.5,100,0.00,CLR,,0.00,WeatherDisplay:10.37,2013-01-12 01:31:00,
2013-01-11 19:36:00,68.2,68.2,29.85,SE,138,5.4,9.2,100,0.00,CLR,,0.00,WeatherDisplay:10.37,2013-01-12 01:36:00,
2013-01-11 19:41:00,68.2,68.2,29.85,ESE,123,6.5,9.3,100,0.00,CLR,,0.00,WeatherDisplay:10.37,2013-01-12 01:41:00,
2013-01-11 19:46:00,68.2,68.2,29.85,SSE,154,6.1,9.6,100,0.00,CLR,,0.00,WeatherDisplay:10.37,2013-01-12 01:46:00,
2013-01-11 19:51:00,68.1,68.1,29.85,ESE,110,6.3,9.2,100,0.00,CLR,,0.00,WeatherDisplay:10.37,2013-01-12 01:51:00,
2013-01-11 19:56:00,68.2,68.2,29.86,SE,131,4.9,6.9,100,0.00,CLR,,0.00,WeatherDisplay:10.37,2013-01-12 01:56:00,
2013-01-11 20:01:00,68.2,68.2,29.86,ESE,114,4.9,8.7,100,0.00,CLR,,0.00,WeatherDisplay:10.37,2013-01-12 02:01:00,
2013-01-11 20:06:00,68.2,68.2,29.86,SE,136,6.3,8.1,100,0.00,CLR,,0.00,WeatherDisplay:10.37,2013-01-12 02:06:00,
2013-01-11 20:11:00,68.3,68.3,29.86,South,174,6.9,13.8,100,0.00,CLR,,0.00,WeatherDisplay:10.37,2013-01-12 02:11:00,
2013-01-11 20:16:00,68.1,68.1,29.86,ESE,110,7.2,13.8,100,0.00,CLR,,0.00,WeatherDisplay:10.37,2013-01-12 02:16:00,
2013-01-11 20:21:00,67.8,67.8,29.86,South,169,7.4,13.8,100,0.00,CLR,,0.00,WeatherDisplay:10.37,2013-01-12 02:21:00,
2013-01-11 20:26:00,67.5,67.5,29.87,SSE,150,7.1,9.5,100,0.00,CLR,,0.00,WeatherDisplay:10.37,2013-01-12 02:26:00,
2013-01-11 20:31:00,67.3,67.3,29.86,SE,143,6.5,10.4,100,0.00,CLR,,0.00,WeatherDisplay:10.37,2013-01-12 02:31:00,
2013-01-11 20:37:00,67.2,67.2,29.86,SE,134,6.0,8.3,100,0.00,CLR,,0.00,WeatherDisplay:10.37,2013-01-12 02:37:00,
2013-01-11 20:42:00,67.6,67.6,29.86,ESE,102,7.7,11.5,100,0.00,CLR,,0.00,WeatherDisplay:10.37,2013-01-12 02:42:00,
2013-01-11 20:47:00,67.7,67.7,29.86,SE,140,6.8,11.5,100,0.00,CLR,,0.00,WeatherDisplay:10.37,2013-01-12 02:47:00,
2013-01-11 20:52:00,67.8,67.8,29.86,SE,134,7.7,11.7,100,0.00,CLR,,0.00,WeatherDisplay:10.37,2013-01-12 02:52:00,
2013-01-11 20:57:00,67.8,67.8,29.85,SSE,167,7.9,13.3,100,0.00,CLR,,0.00,WeatherDisplay:10.37,2013-01-12 02:57:00,
2013-01-11 21:02:00,67.7,67.7,29.86,SE,141,8.5,14.0,100,0.00,CLR,,0.00,WeatherDisplay:10.37,2013-01-12 03:02:00,
2013-01-11 21:07:00,67.9,67.9,29.86,SE,137,7.8,13.8,100,0.00,CLR,,0.00,WeatherDisplay:10.37,2013-01-12 03:07:00,
2013-01-11 21:12:00,67.9,67.9,29.85,SE,134,8.0,12.7,100,0.00,CLR,,0.00,WeatherDisplay:10.37,2013-01-12 03:12:00,
2013-01-11 21:17:00,67.9,67.9,29.85,East,97,8.6,13.8,100,0.00,CLR,,0.00,WeatherDisplay:10.37,2013-01-12 03:17:00,
2013-01-11 21:22:00,68.0,68.0,29.86,SE,138,6.9,15.0,100,0.00,CLR,,0.00,WeatherDisplay:10.37,2013-01-12 03:22:00,
2013-01-11 21:27:00,68.1,68.1,29.86,SSE,148,6.1,9.2,100,0.00,CLR,,0.00,WeatherDisplay:10.37,2013-01-12 03:27:00,
2013-01-11 21:32:00,68.1,68.1,29.86,South,169,8.4,11.5,100,0.00,CLR,,0.00,WeatherDisplay:10.37,2013-01-12 03:32:00,
2013-01-11 21:37:00,68.0,68.0,29.86,SSE,161,7.5,11.8,100,0.00,CLR,,0.00,WeatherDisplay:10.37,2013-01-12 03:37:00,
2013-01-11 21:42:00,67.9,67.9,29.86,SSE,158,7.6,10.9,100,0.00,CLR,,0.00,WeatherDisplay:10.37,2013-01-12 03:42:00,
2013-01-11 21:47:00,67.7,67.7,29.86,South,191,6.7,9.2,100,0.00,CLR,,0.00,WeatherDisplay:10.37,2013-01-12 03:47:00,
2013-01-11 21:52:00,67.4,67.4,29.87,SSE,147,3.8,8.1,100,0.00,CLR,,0.00,WeatherDisplay:10.37,2013-01-12 03:52:00,
2013-01-11 21:57:00,67.3,67.3,29.87,South,186,3.9,5.8,100,0.00,CLR,,0.00,WeatherDisplay:10.37,2013-01-12 03:57:00,
2013-01-11 22:02:00,67.4,67.4,29.87,SSE,162,4.0,5.9,100,0.00,CLR,,0.00,WeatherDisplay:10.37,2013-01-12 04:02:00,
2013-01-11 22:07:00,67.9,67.9,29.87,SSE,168,4.9,9.2,100,0.00,CLR,,0.00,WeatherDisplay:10.37,2013-01-12 04:07:00,
2013-01-11 22:12:00,68.0,68.0,29.87,SSE,165,5.8,9.1,100,0.00,CLR,,0.00,WeatherDisplay:10.37,2013-01-12 04:12:00,
2013-01-11 22:17:00,68.0,68.0,29.87,SE,145,6.9,9.2,100,0.00,CLR,,0.00,WeatherDisplay:10.37,2013-01-12 04:17:00,
2013-01-11 22:22:00,67.9,67.9,29.88,South,174,5.6,9.2,100,0.00,CLR,,0.00,WeatherDisplay:10.37,2013-01-12 04:22:00,
2013-01-11 22:27:00,67.7,67.7,29.88,SSE,168,5.6,8.6,100,0.00,CLR,,0.00,WeatherDisplay:10.37,2013-01-12 04:27:00,
2013-01-11 22:32:00,67.7,67.7,29.88,SSE,150,6.4,9.4,100,0.00,CLR,,0.00,WeatherDisplay:10.37,2013-01-12 04:32:00,
2013-01-11 22:37:00,67.6,67.6,29.88,SSE,165,6.1,9.2,100,0.00,CLR,,0.00,WeatherDisplay:10.37,2013-01-12 04:37:00,
2013-01-11 22:42:00,67.2,67.2,29.88,SSW,208,4.1,6.9,100,0.00,CLR,,0.00,WeatherDisplay:10.37,2013-01-12 04:42:00,
2013-01-11 22:47:00,67.2,67.2,29.88,SSW,199,4.8,6.9,100,0.00,CLR,,0.00,WeatherDisplay:10.37,2013-01-12 04:47:00,
2013-01-11 22:52:00,67.3,67.3,29.88,South,186,4.5,9.2,100,0.00,CLR,,0.00,WeatherDisplay:10.37,2013-01-12 04:52:00,
2013-01-11 22:57:00,67.1,67.1,29.88,South,174,4.3,6.9,100,0.00,CLR,,0.00,WeatherDisplay:10.37,2013-01-12 04:57:00,
2013-01-11 23:00:00,67.1,67.1,29.88,SSE,164,4.7,6.9,100,0.00,CLR,,0.00,WeatherDisplay:10.37,2013-01-12 05:00:00,
2013-01-11 23:01:00,67.0,67.0,29.88,SSE,157,3.6,6.9,100,0.00,CLR,,0.00,WeatherDisplay:10.37,2013-01-12 05:01:00,
2013-01-11 23:03:00,67.0,67.0,29.88,South,181,5.4,8.6,100,0.00,CLR,,0.00,WeatherDisplay:10.37,2013-01-12 05:03:00,
2013-01-11 23:08:00,66.9,66.9,29.88,South,176,5.3,8.1,100,0.00,CLR,,0.00,WeatherDisplay:10.37,2013-01-12 05:08:00,
2013-01-11 23:14:00,66.8,66.8,29.88,SSE,157,0.0,8.1,100,0.00,CLR,,0.00,WeatherDisplay:10.37,2013-01-12 05:14:00,
2013-01-11 23:19:00,66.7,66.7,29.87,South,172,5.6,9.2,100,0.00,CLR,,0.00,WeatherDisplay:10.37,2013-01-12 05:19:00,
2013-01-11 23:24:00,66.6,66.6,29.88,SSW,195,5.3,8.1,100,0.00,CLR,,0.00,WeatherDisplay:10.37,2013-01-12 05:24:00,
2013-01-11 23:29:00,66.4,66.4,29.88,South,176,5.1,6.9,100,0.00,CLR,,0.00,WeatherDisplay:10.37,2013-01-12 05:29:00,
2013-01-11 23:34:00,66.2,66.2,29.87,South,184,4.4,7.5,100,0.00,CLR,,0.00,WeatherDisplay:10.37,2013-01-12 05:34:00,
2013-01-11 23:39:00,66.2,66.2,29.88,South,185,4.7,7.7,100,0.00,CLR,,0.00,WeatherDisplay:10.37,2013-01-12 05:39:00,
2013-01-11 23:44:00,66.2,66.2,29.88,SW,215,4.0,6.9,100,0.00,CLR,,0.00,WeatherDisplay:10.37,2013-01-12 05:44:00,
2013-01-11 23:49:00,66.4,66.4,29.88,South,188,5.5,8.6,100,0.00,CLR,,0.00,WeatherDisplay:10.37,2013-01-12 05:49:00,
2013-01-11 23:54:00,66.7,66.7,29.88,SSW,203,5.0,8.1,100,0.00,CLR,,0.00,WeatherDisplay:10.37,2013-01-12 05:54:00,
2013-01-11 23:59:00,66.8,66.8,29.88,South,171,5.1,6.9,100,0.00,CLR,,0.00,WeatherDisplay:10.37,2013-01-12 05:59:00,